WORLDVIEW 2 DEB, 41742

Orbit data source: Space-Track

WORLDVIEW 2 DEB, 41742 is space debris in SSO originally from a launch on Thu, 08 Oct 2009 UTC launched from the Air Force Western Test Range (AFWTR). Debris objects in space refer to the collection of defunct objects orbiting the Earth. Examples of debris include non-operational satellites, rocket bodies, and fragments generated from explosions, collisions, or faulty payload assembly.

Loading next visibility...
Identifier
41742, 2009-055K
Orbit
SSO
Country
Flag of USUS
Related business
Manufacturer
Ball
Mission
Spacecraft
Bus & Motor
Unknown
Mass
Unknown
Launch date (UTC)
2009-10-08 (17 years ago)
Launch vehicle
Unknown
Launch site
Air Force Western Test Range (AFWTR)
Object type
Payload
Rocket body
Debris
Shape & HBR
Unknown shape, 0.1 m
Radar Cross Section
Small (<0.1 m²)

Expand to show TLE details & history
Last TLE update: 8 hours ago

TLE from 8 hours ago
0 WORLDVIEW 2 DEB
1 41742U 09055K   26132.78804336  .00001775  00000-0  39268-3 0  9991
2 41742  98.3505 226.8971 0005828 320.6345  39.4429 14.58466370516952
Epoch: 2026-05-12T18:54Z
TLE epoch observation values (Epoch: 2026-05-12T18:54:46.946Z)
Latitude
-0.00007°
Longitude
72.6441°
Altitude
697.924 km
Speed
7.509 km/s
True Right ascension
15h 07m 35s
True Declination
0° 00' 00"
Sunlit
Object was in full shadow at epoch
Visualization orbit readout
Latitude
Unknown
Longitude
Unknown
Altitude
Unknown
Speed
Unknown
Apparent Right ascension
Unknown
Apparent Declination
Unknown
Sunlit
N/A
Visualization observer readout
Local Sidereal Time
11:18:38
Azimuth
Unknown
Elevation
Unknown
Doppler factor
Unknown
Orbital elements
Apogee altitude
699.343 km
Perigee altitude
691.098 km
Semi-major axis
7,073.358 km
Eccentricity
0.00058
Inclination
98.3505°
RAAN
226.8971°
Arg. of periapsis
320.6345°
True anomaly
39.48535°
Mean anomaly
39.4429°
Eccentric anomaly
39.46412°
Mean motion
3.64842 °/min
Orbital period
98.67 mins
BSTAR
0.00039268
Loading maneuver chart data...
Computing Atmospheric mass density...

Documentation

Showing up to 5 results
|